DLH6AM EDDV-EDDM

Flight info

Callsign DLH6AM
Flight time N/A
Altitude 31000
Route POVEL4F/27L POVEL Z94 GALMA T703 LULAR/N0405F300 T105 LANDU LANDU2B
Aircraft A320/M-SDE2E3FGIJ1LORWXYZ/HB1

Departure

Time N/A
Airport Hannover Airport (EDDV)

Arrival

Time 2026-05-03 20:45
Airport Munich Airport (EDDM)
Time Latitude Longitude Altitude Speed Heading
2026-05-03 20:15 50.58786 11.68949 30961 ft 401 kts 148°
2026-05-03 20:15 50.54242 11.74044 30960 ft 401 kts 148°
2026-05-03 20:16 50.49685 11.79120 30968 ft 401 kts 148°
2026-05-03 20:16 50.44980 11.83751 30989 ft 397 kts 159°
2026-05-03 20:17 50.39917 11.87189 30991 ft 397 kts 160°
2026-05-03 20:17 50.34842 11.90605 30990 ft 397 kts 160°
2026-05-03 20:18 50.29803 11.94003 30991 ft 397 kts 160°
2026-05-03 20:18 50.24728 11.97422 30990 ft 397 kts 160°
2026-05-03 20:19 50.19655 12.00842 30969 ft 397 kts 159°
2026-05-03 20:19 50.14584 12.04257 30966 ft 397 kts 159°
2026-05-03 20:20 50.09507 12.07659 30972 ft 397 kts 159°
2026-05-03 20:20 50.04427 12.11045 30971 ft 397 kts 159°
2026-05-03 20:21 49.99335 12.14421 30961 ft 398 kts 159°
2026-05-03 20:21 49.94246 12.17799 30966 ft 398 kts 159°
2026-05-03 20:22 49.89153 12.21179 30964 ft 398 kts 159°
2026-05-03 20:22 49.84060 12.24553 30963 ft 398 kts 159°
2026-05-03 20:23 49.78992 12.27898 30967 ft 398 kts 159°
2026-05-03 20:23 49.73895 12.31262 30811 ft 397 kts 158°
2026-05-03 20:23 49.71479 12.33299 30565 ft 395 kts 148°
2026-05-03 20:24 49.69267 12.35819 30319 ft 394 kts 145°
2026-05-03 20:24 49.67088 12.38378 30075 ft 393 kts 145°
2026-05-03 20:24 49.64919 12.40921 29801 ft 391 kts 145°
2026-05-03 20:24 49.62755 12.43450 29509 ft 387 kts 145°
2026-05-03 20:25 49.60625 12.45932 29082 ft 382 kts 145°
2026-05-03 20:25 49.58512 12.48391 28645 ft 377 kts 146°
2026-05-03 20:25 49.56431 12.50809 28226 ft 372 kts 146°
2026-05-03 20:25 49.54372 12.53197 27813 ft 368 kts 146°
2026-05-03 20:26 49.52338 12.55555 27389 ft 364 kts 146°
2026-05-03 20:26 49.50349 12.57859 26979 ft 361 kts 146°
2026-05-03 20:26 49.48348 12.60174 26555 ft 358 kts 146°
2026-05-03 20:26 49.46361 12.62474 26109 ft 356 kts 146°
2026-05-03 20:27 49.44386 12.64757 25690 ft 354 kts 146°
2026-05-03 20:27 49.42524 12.67222 25228 ft 355 kts 139°
2026-05-03 20:27 49.40729 12.69818 24739 ft 354 kts 142°
2026-05-03 20:27 49.38701 12.71885 24240 ft 349 kts 158°
2026-05-03 20:28 49.36416 12.73023 23765 ft 344 kts 173°
2026-05-03 20:28 49.34046 12.73180 23245 ft 339 kts 188°
2026-05-03 20:28 49.31767 12.72402 22781 ft 334 kts 202°
2026-05-03 20:28 49.29659 12.70961 22340 ft 330 kts 206°
2026-05-03 20:29 49.27579 12.69484 21902 ft 328 kts 206°
2026-05-03 20:29 49.26185 12.68497 21601 ft 327 kts 206°
2026-05-03 20:29 49.24148 12.67061 21166 ft 325 kts 206°
2026-05-03 20:29 49.22094 12.65608 20727 ft 324 kts 206°
2026-05-03 20:30 49.20056 12.64152 20315 ft 321 kts 206°
2026-05-03 20:30 49.18034 12.62701 19899 ft 319 kts 206°
2026-05-03 20:30 49.16028 12.61264 19494 ft 318 kts 206°
2026-05-03 20:30 49.14029 12.59831 19091 ft 316 kts 206°
2026-05-03 20:31 49.12044 12.58411 18692 ft 315 kts 206°
2026-05-03 20:31 49.10084 12.57011 18291 ft 314 kts 206°
2026-05-03 20:31 49.08087 12.55583 17853 ft 312 kts 206°
2026-05-03 20:31 49.06151 12.54203 17462 ft 310 kts 205°
2026-05-03 20:32 49.04204 12.52818 17080 ft 307 kts 205°
2026-05-03 20:32 49.02274 12.51440 16697 ft 305 kts 205°
2026-05-03 20:32 49.00354 12.50062 16325 ft 304 kts 205°
2026-05-03 20:32 48.98445 12.48695 15956 ft 303 kts 205°
2026-05-03 20:33 48.96541 12.47334 15587 ft 302 kts 205°
2026-05-03 20:33 48.94640 12.45975 15221 ft 301 kts 205°
2026-05-03 20:33 48.92748 12.44624 14858 ft 300 kts 205°
2026-05-03 20:33 48.90861 12.43278 14495 ft 299 kts 205°
2026-05-03 20:34 48.88976 12.41939 14132 ft 299 kts 205°
2026-05-03 20:34 48.87092 12.40601 13766 ft 299 kts 205°
2026-05-03 20:34 48.85212 12.39267 13365 ft 298 kts 205°
2026-05-03 20:34 48.83340 12.37939 12999 ft 296 kts 205°
2026-05-03 20:35 48.81471 12.36611 12626 ft 295 kts 205°
2026-05-03 20:35 48.79616 12.35296 12257 ft 294 kts 204°
2026-05-03 20:35 48.77706 12.34347 11895 ft 292 kts 194°
2026-05-03 20:35 48.75739 12.33591 11520 ft 291 kts 194°
2026-05-03 20:36 48.73774 12.32837 11140 ft 291 kts 194°
2026-05-03 20:36 48.71812 12.32084 10760 ft 290 kts 194°
2026-05-03 20:36 48.69876 12.31339 10597 ft 282 kts 194°
2026-05-03 20:36 48.67993 12.30613 10338 ft 277 kts 194°
2026-05-03 20:37 48.66127 12.29900 10018 ft 276 kts 194°
2026-05-03 20:37 48.64270 12.29189 9665 ft 275 kts 194°
2026-05-03 20:37 48.62414 12.28477 9243 ft 276 kts 194°
2026-05-03 20:37 48.60558 12.27760 8851 ft 275 kts 195°
2026-05-03 20:38 48.58791 12.26687 8461 ft 274 kts 209°
2026-05-03 20:38 48.57145 12.25247 8084 ft 273 kts 210°
2026-05-03 20:38 48.55502 12.23815 7679 ft 272 kts 210°
2026-05-03 20:38 48.53883 12.22415 7318 ft 271 kts 210°
2026-05-03 20:39 48.52244 12.21003 6924 ft 271 kts 210°
2026-05-03 20:39 48.50610 12.19594 6527 ft 271 kts 210°
2026-05-03 20:39 48.48970 12.18180 6033 ft 273 kts 210°
2026-05-03 20:39 48.47321 12.16763 5658 ft 270 kts 211°
2026-05-03 20:40 48.45683 12.15363 5502 ft 270 kts 211°
2026-05-03 20:40 48.44051 12.13967 5363 ft 270 kts 211°
2026-05-03 20:40 48.42421 12.12569 5250 ft 268 kts 211°
2026-05-03 20:40 48.40812 12.11149 5104 ft 267 kts 217°
2026-05-03 20:41 48.39486 12.09240 4894 ft 262 kts 236°
2026-05-03 20:41 48.38657 12.06847 4616 ft 255 kts 254°
2026-05-03 20:41 48.38346 12.04272 4303 ft 247 kts 265°
2026-05-03 20:41 48.38165 12.01804 3995 ft 233 kts 265°
2026-05-03 20:42 48.37991 11.99443 3706 ft 222 kts 265°
2026-05-03 20:42 48.37823 11.97188 3423 ft 212 kts 266°
2026-05-03 20:42 48.37662 11.95034 3158 ft 203 kts 266°
2026-05-03 20:42 48.37507 11.92977 2899 ft 191 kts 266°
2026-05-03 20:43 48.37365 11.91111 2685 ft 170 kts 266°
2026-05-03 20:43 48.37239 11.89418 2436 ft 157 kts 266°
2026-05-03 20:43 48.37123 11.87825 2199 ft 150 kts 265°
2026-05-03 20:43 48.37008 11.86309 2022 ft 143 kts 264°
2026-05-03 20:44 48.36889 11.84805 1860 ft 149 kts 264°
2026-05-03 20:44 48.36770 11.83239 1691 ft 151 kts 265°
2026-05-03 20:44 48.36654 11.81655 1507 ft 152 kts 264°
2026-05-03 20:44 48.36539 11.80122 1482 ft 140 kts 264°
2026-05-03 20:45 48.36448 11.78889 1463 ft 82 kts 264°
2026-05-03 20:45 48.36398 11.78360 1462 ft 37 kts 257°
2026-05-03 20:45 48.36306 11.78027 1462 ft 34 kts 233°
2026-05-03 20:45 48.36168 11.77746 1458 ft 31 kts 234°
2026-05-03 20:46 48.36012 11.77674 1465 ft 24 kts 168°
2026-05-03 20:46 48.35984 11.77881 1467 ft 23 kts 85°
2026-05-03 20:46 48.35999 11.78128 1465 ft 25 kts 83°
2026-05-03 20:46 48.36021 11.78396 1457 ft 27 kts 83°
2026-05-03 20:47 48.36044 11.78680 1467 ft 28 kts 83°
2026-05-03 20:47 48.36067 11.78980 1468 ft 29 kts 84°
2026-05-03 20:47 48.36084 11.79235 1468 ft 24 kts 84°
2026-05-03 20:47 48.36074 11.79473 1461 ft 23 kts 144°
2026-05-03 20:48 48.35910 11.79512 1467 ft 25 kts 173°
2026-05-03 20:48 48.35733 11.79543 1460 ft 27 kts 174°
2026-05-03 20:48 48.35552 11.79579 1467 ft 23 kts 179°
2026-05-03 20:48 48.35465 11.79500 1467 ft 10 kts 277°
2026-05-03 20:49 48.35515 11.79465 1460 ft 10 kts 19°
2026-05-03 20:49 48.35581 11.79527 1462 ft 12 kts 39°
2026-05-03 20:49 48.35642 11.79601 1466 ft 11 kts 69°
2026-05-03 20:49 48.35656 11.79701 1467 ft 4 kts 85°
2026-05-03 20:50 48.35657 11.79718 1460 ft 0 kts 84°